N8DNY-13 Weather Reports


Display with metric or nautical units.
time (UTC)temp
F
wind
direction
speed
MPH
gust
MPH
rain 1hr
in
rain 24hr
in
rain mn
in
humidity
%
barometer
mb
20260510161805 65 18 2.0 4.0 0.00 0.00 0.00 34 1022.2
20260510160300 64 230 0.0 2.0 0.00 0.00 0.00 33 1021.9
20260510154752 65 287 1.0 2.0 0.00 0.00 0.00 37 1021.9
20260510153250 64 283 1.0 2.0 0.00 0.00 0.00 37 1021.7
20260510151740 62 281 0.0 1.0 0.00 0.00 0.00 39 1021.7
20260510150231 61 291 0.0 1.0 0.00 0.00 0.00 39 1021.6
20260510144730 60 282 0.0 1.0 0.00 0.00 0.00 43 1021.6
20260510143223 60 292 0.0 0.0 0.00 0.00 0.00 39 1021.6
20260510141740 59 281 0.0 1.0 0.00 0.00 0.00 42 1021.4
20260510140235 59 315 0.0 1.0 0.00 0.00 0.00 44 1021.4
20260510134710 58 286 0.0 1.0 0.00 0.00 0.00 45 1021.2
20260510133207 57 289 0.0 1.0 0.00 0.00 0.00 49 1021.1
20260510131700 56 300 0.0 1.0 0.00 0.00 0.00 51 1021.3
20260510130159 56 288 0.0 1.0 0.00 0.00 0.00 54 1021.1
20260510124656 54 292 0.0 0.0 0.00 0.00 0.00 57 1021.0
20260510123210 52 299 0.0 1.0 0.00 0.00 0.00 57 1020.6
20260510121648 50 297 0.0 2.0 0.00 0.00 0.00 62 1020.4
20260510120144 49 300 1.0 2.0 0.00 0.00 0.00 64 1020.3
20260510114640 48 289 0.0 0.0 0.00 0.00 0.00 63 1019.8
20260510113136 47 339 1.0 2.0 0.00 0.00 0.00 64 1019.8
20260510111631 47 18 1.0 2.0 0.00 0.00 0.00 66 1019.5
20260510110128 46 314 1.0 3.0 0.00 0.00 0.00 66 1019.4
20260510104645 46 295 0.0 1.0 0.00 0.00 0.00 66 1019.1
20260510103141 47 301 0.0 1.0 0.00 0.00 0.00 66 1018.7
20260510101620 47 285 1.0 2.0 0.00 0.00 0.00 66 1018.6
20260510100113 48 293 0.0 1.0 0.00 0.00 0.00 70 1018.1
20260510094610 48 346 3.0 4.0 0.00 0.00 0.00 70 1018.0
20260510093106 46 284 0.0 0.0 0.00 0.00 0.00 82 1017.6
20260510091620 45 291 0.0 0.0 0.00 0.00 0.00 87 1017.5
20260510090058 47 291 0.0 0.0 0.00 0.00 0.00 85 1017.0
20260510084610 47 291 0.0 0.0 0.00 0.00 0.00 83 1016.7
20260510083040 47 291 0.0 0.0 0.00 0.00 0.00 80 1016.4
20260510081532 49 291 0.0 0.0 0.00 0.00 0.00 77 1016.3
20260510080030 47 291 0.0 0.0 0.00 0.00 0.00 82 1016.3
20260510074525 45 288 0.0 0.0 0.00 0.00 0.00 86 1016.0
20260510073020 46 288 0.0 0.0 0.00 0.00 0.00 84 1015.6
20260510071537 47 288 0.0 0.0 0.00 0.00 0.00 81 1015.3
20260510070010 47 288 0.0 0.0 0.00 0.00 0.00 77 1015.2
20260510064503 48 288 0.0 0.0 0.00 0.00 0.00 75 1015.1
20260510063002 50 288 0.0 0.0 0.00 0.00 0.00 70 1014.9
20260510061502 50 288 0.0 0.0 0.00 0.00 0.00 67 1014.8
20260510060020 52 288 0.0 0.0 0.00 0.00 0.00 64 1014.3
20260510054454 53 288 0.0 0.0 0.00 0.00 0.00 61 1014.4
20260510052950 54 288 0.0 0.0 0.00 0.00 0.00 58 1014.3
20260510051440 56 282 0.0 0.0 0.00 0.00 0.00 56 1013.9
20260510045931 56 293 0.0 1.0 0.00 0.00 0.00 56 1013.5
20260510044450 57 290 0.0 1.0 0.00 0.00 0.00 56 1013.5
20260510042922 57 291 0.0 0.0 0.00 0.00 0.00 55 1013.5
20260510041420 58 287 0.0 0.0 0.00 0.00 0.00 54 1012.9
20260510035915 59 308 0.0 1.0 0.00 0.20 0.20 53 1012.8
20260510034410 60 307 2.0 2.0 0.00 0.20 0.20 54 1012.6
20260510032907 60 293 0.0 1.0 0.00 0.20 0.20 62 1012.3
20260510031407 59 292 0.0 1.0 0.00 0.20 0.20 79 1011.9
20260510025921 58 278 0.0 0.0 0.00 0.20 0.20 84 1011.5
20260510024400 58 278 0.0 0.0 0.00 0.20 0.20 83 1011.2
20260510022852 58 270 0.0 0.0 0.00 0.20 0.20 82 1010.6
20260510021350 60 270 0.0 0.0 0.00 0.20 0.20 79 1010.1
20260510015845 60 271 0.0 0.0 0.00 0.20 0.20 77 1010.1
20260510014340 61 269 0.0 1.0 0.00 0.20 0.20 75 1009.8
20260510012837 61 273 0.0 0.0 0.00 0.20 0.20 74 1009.7
20260510011334 61 271 0.0 1.0 0.00 0.20 0.20 74 1009.4
20260510005850 62 275 0.0 0.0 0.00 0.20 0.20 73 1009.3
20260510004327 63 271 0.0 0.0 0.00 0.20 0.20 70 1009.0
20260510002823 63 273 0.0 1.0 0.00 0.20 0.20 69 1009.2
20260510001320 64 275 0.0 0.0 0.00 0.20 0.20 69 1008.9
20260509235815 64 267 0.0 1.0 0.00 0.20 0.20 67 1009.0
20260509234310 65 246 0.0 1.0 0.00 0.20 0.20 66 1009.0
20260509232828 66 255 1.0 3.0 0.00 0.20 0.20 66 1008.7
20260509231300 66 277 1.0 2.0 0.00 0.20 0.20 65 1008.7
20260509225750 66 248 0.0 1.0 0.00 0.20 0.20 66 1008.7
20260509224240 66 200 1.0 3.0 0.00 0.20 0.20 66 1008.7
20260509222739 66 283 1.0 2.0 0.00 0.20 0.20 66 1008.7
20260509221235 66 259 1.0 2.0 0.00 0.20 0.20 65 1008.5
20260509215730 67 240 0.0 1.0 0.00 0.20 0.20 69 1008.5
20260509214228 66 278 1.0 2.0 0.00 0.20 0.20 69 1008.6
20260509212725 63 211 1.0 3.0 0.00 0.20 0.20 84 1008.7
20260509211241 60 286 0.0 0.0 0.24 0.20 0.20 89 1008.6
20260509205720 62 277 1.0 2.0 0.66 0.11 0.11 82 1008.5
20260509204214 69 275 0.0 1.0 0.00 0.00 0.00 56 1006.8
20260509202710 71 298 1.0 2.0 0.00 0.00 0.00 49 1006.8
20260509201207 73 284 5.0 10.0 0.00 0.00 0.00 48 1007.0
20260509195720 73 197 5.0 8.0 0.00 0.00 0.00 48 1007.1
20260509194150 72 236 2.0 3.0 0.00 0.00 0.00 50 1007.5
20260509192641 73 277 0.0 1.0 0.00 0.00 0.00 49 1007.5
20260509191140 73 319 2.0 4.0 0.00 0.00 0.00 51 1007.8
20260509185630 74 39 3.0 4.0 0.00 0.00 0.00 50 1008.0
20260509184121 74 269 2.0 3.0 0.00 0.00 0.00 54 1008.2
20260509182620 72 269 1.0 2.0 0.00 0.00 0.00 55 1008.3
20260509181134 72 274 6.0 10.0 0.00 0.00 0.00 56 1008.5
20260509175610 71 207 4.0 6.0 0.00 0.00 0.00 55 1008.5
20260509174128 71 193 4.0 6.0 0.00 0.00 0.00 55 1008.7
20260509172620 70 132 5.0 9.0 0.00 0.00 0.00 56 1008.6
20260509171110 70 200 5.0 8.0 0.00 0.00 0.00 56 1008.8
20260509165543 70 171 6.0 10.0 0.00 0.00 0.00 56 1008.7
20260509164040 69 281 0.0 1.0 0.00 0.00 0.00 60 1008.8
20260509162556 69 240 0.0 2.0 0.00 0.00 0.00 58 1008.9